Location: American Medical Response
(33.3472°N, 96.5511°W)
Time: 16:10:40
(UTC+00:00)

Daily predictions for brighter satellites

Satellite Brightness Start Highest point End
(mag) Time Altitude Azimuth Time Altitude Azimuth Time Altitude Azimuth
SJ 16-02 1.7 12:01:39 10° SW 12:05:44 38° WNW 12:09:50 10° N
OAO 2 Rocket 3.5 12:04:47 15° WSW 12:09:09 77° SSE 12:14:17 10° ENE
CZ-4B R/B 3.2 12:06:53 10° NNE 12:10:26 59° ESE 12:14:04 10° S
H-2A R/B 4.0 12:13:52 20° W 12:13:52 20° W 12:16:02 10° WSW
Meteor 2-15 Rocket 4.4 12:09:06 10° N 12:15:10 76° W 12:21:12 10° S
DELTA 2 R/B (1) 4.1 12:12:08 19° WNW 12:15:56 47° N 12:21:17 10° E
Cosmos 1515 Rocket 3.6 12:12:18 10° NNW 12:16:31 53° W 12:20:43 10° S
Cosmos 2228 Rocket 4.0 12:17:43 10° N 12:22:09 54° E 12:26:36 10° SSE
Meteor 1-27 Rocket 3.7 12:16:49 10° NNW 12:22:31 72° W 12:28:18 10° S
Meteor 1-31 Rocket 3.9 12:21:29 10° NNW 12:24:36 23° WNW 12:27:43 10° SW
Cosmos 1500 Rocket 4.0 12:24:27 10° SSW 12:28:38 40° W 12:32:51 10° N
Sich 1 3.1 12:24:51 10° S 12:29:07 84° E 12:33:24 10° N
SL-27 R/B 3.2 12:27:43 12° NW 12:30:38 32° W 12:33:45 10° SSW
SL-4 R/B 2.7 12:28:17 14° W 12:30:38 26° NW 12:33:47 10° NNE
SKYMED 2 4.5 12:27:42 10° SSW 12:31:27 29° W 12:35:13 10° NW
CZ-4B R/B 4.1 12:30:24 10° ESE 12:32:46 19° ENE 12:35:07 10° NNE
Cosmos 44 4.5 12:28:42 10° S 12:33:55 53° ESE 12:39:05 10° NE
Nadezhda 4 Rocket 4.4 12:29:26 10° SW 12:35:05 37° WNW 12:40:49 10° NNW
Cosmos 2297 Rocket 4.0 12:30:20 10° N 12:35:12 29° ENE 12:40:02 10° ESE
NOAA 12 4.0 12:30:35 10° N 12:35:50 79° WNW 12:41:03 10° SSW
Cosmos 1939 Rocket 2.7 12:33:14 10° N 12:37:08 87° WNW 12:40:58 10° SSW
CZ-2C R/B 3.5 12:34:04 10° SSW 12:38:49 30° W 12:43:31 10° NW
Meteor 1-25 Rocket 4.2 12:33:43 10° SSW 12:39:16 61° W 12:44:47 10° N
H-2A R/B 2.6 12:36:14 10° SSE 12:40:25 62° ENE 12:44:45 10° N
Cosmos 1805 Rocket 3.7 12:36:56 10° SSW 12:41:12 51° W 12:45:28 10° N
Cosmos 1538 Rocket 4.0 12:36:08 10° NNW 12:41:22 87° WSW 12:46:31 10° SSE
ADEOS 4.1 12:37:40 10° N 12:42:23 35° WNW 12:47:05 10° SW
H-2A R/B (2) 4.1 12:37:47 10° WSW 12:42:56 66° SSE 20:19:13 10° SE
Okean 1 3.9 12:40:02 10° N 12:43:56 60° E 12:47:50 10° SSE
Cosmos 1602 4.3 12:45:10 10° SW 12:48:38 33° W 12:52:07 10° NNW
Cosmos 1092 Rocket 4.3 12:49:14 10° SSW 12:55:12 46° W 13:01:15 10° N
Lacrosse 5 rocket 3.0 23:46:21 10° N 23:48:40 15° NE 23:51:03 10° ENE
GPS 2-04 Rocket1 3.3 23:45:04 10° W 23:49:06 60° SSW 23:53:09 10° ESE
Meteor 2-6 Rocket 4.4 23:43:35 10° S 23:49:10 54° E 23:54:38 10° NNE
NOAA 12 4.4 23:46:13 10° S 23:51:32 78° WSW 23:56:51 10° NNW
Cosmos 1812 2.9 23:49:35 10° S 23:53:24 77° W 23:57:16 10° N
